contact:dominique.lefevre@mio.osupytheas.fr, maurice.libes@osupytheas.fr
Project:EMSO Ligure-ouest http://www.emso-fr.org/EMSO-France
Sensor Aquadopp, line 04 Serial AQD8517 
DOI : "https://doi.org/10.17882/74513; https://doi.org/10.17882/83244" 
Title:EMSO Ligure Ouest : Data ligne ALBATROSS capteur AQUADOPP - deploiement 2021
Id,Date,Profondeur,Latitude,Longitude,X_East,Y_North,Z_Up,Amplitude_X,Amplitude_Y,Amplitude_Z,Batterie,SoundSpeed,Heading,Pitch,Roll,Pressure,Temperature,Speed,Direction
, , m, degrees North, degrees East, m.s-1, m.s-1,m.s-1, 1, 1, 1, Volt, m.s-1, degree, degree, degree, dbar, degree_C, m.s-1, degree
01,2021-11-07T21:30:00,500.0,42.79,6.0312,0.008,0.022,0.002,45.0,42.0,44.0,12.7,1505.6,0.0,0.0,0.6,452.283,13.58,0.023,20.0
01,2021-11-07T22:00:00,500.0,42.79,6.0312,0.021,-0.003,0.024,52.0,41.0,46.0,12.7,1505.6,354.0,-0.1,0.7,452.274,13.58,0.021,98.1
01,2021-11-07T22:30:00,500.0,42.79,6.0312,0.007,0.0,0.012,47.0,44.0,42.0,12.7,1505.7,353.6,0.0,0.7,452.272,13.59,0.007,90.0
01,2021-11-07T23:00:00,500.0,42.79,6.0312,0.009,-0.015,0.0,48.0,42.0,41.0,12.7,1505.7,174.0,-0.2,0.6,452.264,13.6,0.017,149.0
01,2021-11-07T23:30:00,500.0,42.79,6.0312,0.002,-0.01,0.012,49.0,44.0,45.0,12.7,1505.7,200.0,0.0,0.6,452.184,13.6,0.01,168.7
01,2021-11-08T00:00:00,500.0,42.79,6.0312,-0.001,-0.019,-0.001,51.0,41.0,44.0,12.7,1505.8,228.0,-0.2,0.6,452.219,13.63,0.019,183.0
01,2021-11-08T00:30:00,500.0,42.79,6.0312,-0.007,-0.034,0.006,50.0,42.0,45.0,12.7,1505.8,241.5,-0.2,0.6,452.173,13.63,0.034,191.6
01,2021-11-08T01:00:00,500.0,42.79,6.0312,-0.007,-0.034,0.014,50.0,45.0,49.0,12.7,1505.8,245.7,-0.3,0.7,452.167,13.63,0.034,191.6
01,2021-11-08T01:30:00,500.0,42.79,6.0312,-0.013,-0.03,0.014,47.0,43.0,45.0,12.7,1505.8,245.2,-0.2,0.7,452.197,13.63,0.032,203.4
01,2021-11-08T02:00:00,500.0,42.79,6.0312,-0.025,-0.025,0.015,48.0,49.0,47.0,12.7,1505.8,260.2,-0.2,0.7,452.064,13.62,0.035,225.0
01,2021-11-08T02:30:00,500.0,42.79,6.0312,-0.023,-0.023,0.009,48.0,43.0,44.0,12.7,1505.7,274.8,-0.2,0.7,452.13,13.6,0.032,225.0
01,2021-11-08T03:00:00,500.0,42.79,6.0312,-0.03,-0.01,0.0,52.0,44.0,47.0,12.7,1505.8,286.2,-0.1,0.6,452.083,13.62,0.031,251.6
01,2021-11-08T03:30:00,500.0,42.79,6.0312,-0.019,-0.022,0.017,49.0,47.0,44.0,12.7,1505.9,294.6,-0.2,0.6,452.08,13.67,0.029,220.8
01,2021-11-08T04:00:00,500.0,42.79,6.0312,-0.029,-0.017,0.011,49.0,43.0,47.0,12.7,1505.9,293.2,-0.1,0.6,452.057,13.67,0.033,239.6
01,2021-11-08T04:30:00,500.0,42.79,6.0312,-0.037,-0.011,-0.004,50.0,44.0,45.0,12.7,1505.9,296.5,-0.1,0.8,452.084,13.67,0.038,253.4
01,2021-11-08T05:00:00,500.0,42.79,6.0312,-0.03,-0.009,0.009,50.0,44.0,46.0,12.7,1505.9,303.6,-0.2,0.6,452.101,13.65,0.031,253.3
01,2021-11-08T05:30:00,500.0,42.79,6.0312,-0.031,0.0,0.007,48.0,46.0,46.0,12.7,1505.9,312.3,0.0,0.7,452.202,13.66,0.03,270.0
01,2021-11-08T06:00:00,500.0,42.79,6.0312,-0.033,-0.005,0.0,51.0,46.0,44.0,12.7,1505.9,310.8,-0.1,0.7,452.141,13.65,0.033,261.4
01,2021-11-08T06:30:00,500.0,42.79,6.0312,-0.026,0.009,0.002,53.0,46.0,45.0,12.7,1505.7,315.0,-0.1,0.6,452.222,13.61,0.027,289.1
01,2021-11-08T07:00:00,500.0,42.79,6.0312,-0.039,0.013,0.008,47.0,44.0,47.0,12.7,1505.7,321.9,-0.2,0.7,452.279,13.61,0.041,288.4
01,2021-11-08T07:30:00,500.0,42.79,6.0312,-0.006,0.02,0.007,47.0,46.0,45.0,12.7,1505.7,322.5,-0.1,0.7,452.284,13.6,0.02,343.3
01,2021-11-08T08:00:00,500.0,42.79,6.0312,-0.018,0.024,0.013,52.0,43.0,46.0,12.7,1505.7,320.0,-0.1,0.6,452.306,13.59,0.03,323.1
01,2021-11-08T08:30:00,500.0,42.79,6.0312,-0.029,0.034,0.004,47.0,47.0,45.0,12.7,1505.6,326.2,-0.1,0.7,452.32,13.58,0.044,319.5
01,2021-11-08T09:00:00,500.0,42.79,6.0312,-0.024,0.036,0.0,46.0,44.0,44.0,12.7,1505.6,333.3,-0.1,0.6,452.382,13.57,0.043,326.3
01,2021-11-08T09:30:00,500.0,42.79,6.0312,-0.025,0.026,-0.006,48.0,45.0,47.0,12.7,1505.7,336.8,-0.2,0.7,452.355,13.59,0.036,316.1
01,2021-11-08T10:00:00,500.0,42.79,6.0312,-0.019,0.026,0.0,48.0,45.0,44.0,12.7,1505.7,340.6,-0.1,0.7,452.336,13.6,0.032,323.8
01,2021-11-08T10:30:00,500.0,42.79,6.0312,-0.002,0.04,0.013,51.0,45.0,46.0,12.7,1505.7,356.2,-0.1,0.7,452.35,13.59,0.04,357.1
01,2021-11-08T11:00:00,500.0,42.79,6.0312,-0.02,0.034,0.01,48.0,48.0,47.0,12.7,1505.7,351.2,-0.1,0.6,452.339,13.59,0.039,329.5
01,2021-11-08T11:30:00,500.0,42.79,6.0312,0.003,0.036,0.004,53.0,44.0,43.0,12.7,1505.6,350.8,-0.1,0.7,452.334,13.57,0.036,4.8
01,2021-11-08T12:00:00,500.0,42.79,6.0312,0.006,0.022,0.003,49.0,45.0,45.0,12.7,1505.6,359.4,-0.1,0.6,452.302,13.57,0.022,15.3
01,2021-11-08T12:30:00,500.0,42.79,6.0312,0.008,0.02,0.01,50.0,46.0,48.0,12.7,1505.6,354.6,-0.2,0.7,452.267,13.58,0.021,21.8
01,2021-11-08T13:00:00,500.0,42.79,6.0312,0.022,0.031,-0.003,51.0,45.0,45.0,12.7,1505.7,2.1,-0.1,0.5,452.292,13.59,0.038,35.4
01,2021-11-08T13:30:00,500.0,42.79,6.0312,0.011,0.016,0.0,54.0,48.0,48.0,12.7,1505.8,6.4,-0.1,0.7,452.219,13.64,0.019,34.5
01,2021-11-08T14:00:00,500.0,42.79,6.0312,0.008,0.0,-0.022,52.0,44.0,46.0,12.7,1505.8,138.2,-0.1,0.7,452.234,13.64,0.008,90.0
01,2021-11-08T14:30:00,500.0,42.79,6.0312,0.018,0.01,-0.001,52.0,43.0,46.0,12.7,1505.9,181.9,-0.1,0.6,452.153,13.65,0.02,60.9
01,2021-11-08T15:00:00,500.0,42.79,6.0312,0.004,0.002,-0.004,53.0,42.0,50.0,12.7,1505.9,207.0,-0.1,0.7,452.219,13.66,0.004,63.4
01,2021-11-08T15:30:00,500.0,42.79,6.0312,-0.003,-0.006,0.004,53.0,42.0,44.0,12.7,1506.0,228.0,-0.1,0.7,452.168,13.68,0.006,206.6
01,2021-11-08T16:00:00,500.0,42.79,6.0312,0.011,-0.017,-0.009,50.0,46.0,45.0,12.7,1506.0,229.3,-0.2,0.6,452.133,13.68,0.02,147.1
01,2021-11-08T16:30:00,500.0,42.79,6.0312,-0.009,-0.018,0.009,51.0,46.0,45.0,12.7,1506.0,255.5,-0.2,0.7,452.194,13.69,0.02,206.6
01,2021-11-08T17:00:00,500.0,42.79,6.0312,-0.026,-0.015,0.017,51.0,47.0,46.0,12.7,1506.0,262.2,-0.1,0.7,452.175,13.69,0.03,240.0
01,2021-11-08T17:30:00,500.0,42.79,6.0312,-0.022,-0.014,0.016,52.0,49.0,49.0,12.7,1506.0,273.6,-0.2,0.7,452.154,13.68,0.026,237.5
01,2021-11-08T18:00:00,500.0,42.79,6.0312,-0.016,-0.016,0.004,51.0,50.0,47.0,12.7,1506.0,285.7,-0.1,0.7,452.172,13.68,0.022,225.0
01,2021-11-08T18:30:00,500.0,42.79,6.0312,-0.023,0.002,0.008,52.0,48.0,50.0,12.7,1505.9,293.3,-0.1,0.7,452.153,13.66,0.023,275.0
01,2021-11-08T19:00:00,500.0,42.79,6.0312,-0.019,0.002,0.009,51.0,48.0,48.0,12.7,1506.0,295.5,-0.2,0.7,452.219,13.68,0.019,276.0
01,2021-11-08T19:30:00,500.0,42.79,6.0312,-0.016,0.004,0.008,54.0,46.0,48.0,12.7,1506.0,304.2,-0.2,0.7,452.253,13.69,0.016,284.0
01,2021-11-08T20:00:00,500.0,42.79,6.0312,-0.031,0.005,0.008,55.0,45.0,48.0,12.7,1506.0,316.4,-0.2,0.7,452.251,13.68,0.031,279.2
01,2021-11-08T20:30:00,500.0,42.79,6.0312,-0.024,0.009,0.002,56.0,44.0,46.0,12.7,1505.9,320.9,-0.2,0.7,452.216,13.66,0.025,290.6
01,2021-11-08T21:00:00,500.0,42.79,6.0312,-0.017,0.01,0.014,51.0,49.0,48.0,12.7,1506.0,328.1,-0.2,0.6,452.295,13.68,0.019,300.5
